Location: Casilda
(33.0440°S, 61.1680°W)
Time: 19:57:17
(UTC-03:00)

ISS - Pass Details

Date: 25 November 2022
Orbit: 414 x 420 km, 51.6° (Epoch: 02 December)

Event Time Altitude Azimuth Distance (km) Brightness Sun altitude
Exits shadow 05:12:06 - 267° (W) 1,780 -1.1 -7.8°
Reaches altitude 10° 05:12:58 10° 259° (WSW) 1,520 -1.4 -7.7°
Maximum altitude 05:15:24 18° 213° (SSW) 1,129 -1.6 -7.2°
Drops below altitude 10° 05:17:51 10° 168° (SSE) 1,531 -0.2 -6.8°
Sets 05:20:27 0° 147° (SSE) 2,404 1.4 -6.3°
